[[{"header":{"parameterUnit":"m.s-1","parameterCategory":1,"la1":30.2991,"la2":30.254,"lo1":-89.0895,"lo2":-89.0444,"dy":0.0017,"dx":0.0017,"nx":28,"ny":28,"refTime":"2025-03-21T21:00:00:Z","depth":0,"parameterNumber":2,"parameterNumberName":"U-component_of_WINDS"},"data":[0,0,0,0,0,0,0,0,0,0,0,0,0,0,0,0,0,0,0,0,0,0,0,0,0,0,0,0,0,0,0,0,0,0,0,0,0,0,0,0,0,0,0,0,0,0,0,0,0,0,0,0,0,0,0,0,0,0,3.4332,3.4336,0,3.4646,3.4649,3.4653,3.4659,3.4656,3.4652,3.4648,3.4973,3.4985,3.4997,0,0,0,0,0,0,0,0,0,0,0,0,0,3.3742,3.3753,3.4332,3.4336,3.434,3.4645,3.4649,3.4654,3.466,3.4655,3.4651,3.4646,3.4969,3.4984,3.4998,0,0,0,0,0,0,0,0,0,0,0,0,0,3.4021,3.3756,3.4331,3.438,3.4387,3.4644,3.465,3.4655,3.4661,3.4655,3.4649,3.4644,3.4964,3.4982,3.5,3.5232,0,0,3.5057,3.5065,0,0,0,0,0,0,0,0,3.4005,3.4043,3.4369,3.4377,3.4386,3.4607,3.4561,3.4848,3.4663,3.4557,3.4648,3.4641,3.4857,3.4883,3.4955,3.5247,3.5261,3.5058,3.507,3.5078,3.5083,0,0,0,0,0,0,0,3.3986,3.403,3.4456,3.4374,3.4384,3.4387,3.442,3.4615,3.4736,3.4566,3.4567,3.4604,3.486,3.4937,3.4963,3.5266,3.5058,3.5074,3.5086,3.5093,3.576,3.5767,0,0,0,0,0,0,3.3957,3.4013,3.4446,3.4466,3.4177,3.4402,3.4439,3.4542,3.4734,3.4757,3.4609,3.4603,3.4909,3.4941,3.4974,3.5256,3.5077,3.5095,3.5105,3.5754,3.5762,3.5769,0,0,0,0,0,0,3.3944,3.3995,3.4434,3.424,3.4296,3.4419,3.4534,3.4552,3.4629,3.4766,3.4788,3.4665,3.4906,3.4948,3.5167,3.5267,3.5103,3.512,3.5746,3.5756,3.5766,3.5822,0,0,0,0,0,0,3.3927,3.3991,3.4079,3.4242,3.4306,3.462,3.454,3.4562,3.466,3.4656,3.4825,3.4848,3.4904,3.5139,3.5185,3.529,3.5134,3.5738,3.5751,3.5762,3.5812,3.5832,3.585,0,0,0,0,0,3.3906,3.4084,3.4084,3.4136,3.4419,3.4626,3.4663,3.4723,3.4668,3.4758,3.4846,3.4842,3.5249,3.5162,3.5213,3.5325,3.5731,3.5747,3.5761,3.5803,3.5828,3.585,0,0,0,0,0,0,3.3932,3.4106,3.4108,3.4343,3.447,3.4627,3.4742,3.4749,3.4894,3.4885,3.4954,3.4993,3.5209,3.529,3.5189,3.5558,3.5484,3.551,3.5497,3.5523,3.5542,3.5518,3.515,0,0,0,0,0,3.3964,3.4117,3.4261,3.4455,3.4518,3.4619,3.4712,3.4747,3.4881,3.4935,3.5039,3.517,3.5327,3.543,3.5582,3.5823,3.586,3.5926,3.5945,3.596,3.5982,3.6113,3.6144,3.5818,3.5818,3.5818,0,0,3.4035,3.4149,3.4241,3.4463,3.4565,3.4722,3.4664,3.4833,3.495,3.4961,3.5173,3.5254,3.5405,3.5635,3.5741,3.5708,3.608,3.5979,3.599,3.6004,3.6132,3.6163,3.619,3.5829,3.5827,3.5825,0,0,3.4242,3.4344,3.4515,3.4618,3.4772,3.4838,3.4879,3.5035,3.5089,3.5302,3.5313,3.5454,3.5724,3.583,3.592,3.6165,3.6166,3.6213,3.6314,3.6442,3.6467,3.649,3.6576,3.6607,3.6234,3.6234,3.6234,0,3.4309,3.4544,3.4603,3.4772,3.4869,3.4884,3.5059,3.5156,3.5353,3.542,3.538,3.5717,3.582,3.6074,3.6133,3.6206,3.6255,3.6194,3.6459,3.6482,3.6505,3.6588,3.662,3.6239,3.6238,3.6238,3.6237,0,3.462,3.4782,3.4903,3.509,3.5201,3.5372,3.5457,3.5562,3.5588,3.5658,3.5874,3.5998,3.6174,3.6238,3.6265,3.6496,3.647,3.6444,3.637,3.6539,3.6618,3.6651,3.6245,3.6244,3.6242,3.6241,0,0,3.4853,3.5068,3.5112,3.5196,3.5366,3.5494,3.5665,3.5836,3.5924,3.6059,3.6204,3.6431,3.6407,3.6508,3.6548,3.666,3.6844,3.662,3.6624,3.6656,3.7104,3.7122,3.7158,3.6846,3.6852,3.6857,3.7091,0,3.5077,3.538,3.5437,3.5701,3.5851,3.5867,3.6016,3.6137,3.6207,3.6345,3.6423,3.6582,3.6538,3.6599,3.6711,3.6798,3.6935,3.6782,3.6981,3.6988,3.6941,3.7199,3.7219,3.7434,3.7122,3.7128,3.7131,0,3.538,3.5519,3.5797,3.5945,3.6011,3.6143,3.6304,3.6436,3.6573,3.6616,3.6728,3.6755,3.6933,3.6851,3.7098,3.6993,3.7078,3.7133,3.7142,3.7163,3.7069,3.7225,3.7504,3.7535,3.7181,3.7177,3.7173,0,3.552,3.5778,3.5977,3.6049,3.6227,3.632,3.6398,3.653,3.6628,3.6769,3.6833,3.6994,3.7081,3.7205,3.7274,3.7208,3.7515,3.744,3.7555,3.7553,3.7618,3.7613,3.7913,3.7675,3.7675,3.7674,3.7673,0,3.5764,3.5933,3.6042,3.6164,3.6354,3.6418,3.6604,3.6682,3.6798,3.6936,3.6961,3.709,3.7174,3.7315,3.737,3.7565,3.7605,3.7644,3.7657,3.7642,3.7636,3.7698,3.7684,3.7683,3.7681,3.7679,3.7678,0,3.5952,3.6032,3.625,3.64,3.6441,3.6574,3.6703,3.6823,3.6891,3.7066,3.7111,3.7219,3.7387,3.7467,3.7676,3.7713,3.7933,3.7937,3.7886,3.789,3.8,3.7988,3.8349,3.8399,3.8129,3.8132,3.8134,0,3.6102,3.6232,3.6395,3.6488,3.6569,3.6719,3.6819,3.6887,3.699,3.7155,3.7255,3.7422,3.756,3.7827,3.7925,3.8084,3.8091,3.8206,3.8115,3.8094,3.8091,3.8081,3.8094,3.8222,3.8225,3.8227,3.8229,0,3.636,3.6392,3.6534,3.669,3.6808,3.6934,3.7059,3.7134,3.7222,3.7337,3.7507,3.7613,3.7824,3.7991,3.8156,3.8238,3.8248,3.8256,3.8291,3.8276,3.8241,3.826,3.7929,3.8248,3.8246,3.8244,3.8243,3.8243,3.6533,3.6648,3.678,3.6937,3.7037,3.7152,3.7271,3.7354,3.7496,3.7672,3.7704,3.7884,3.8017,3.824,3.8327,3.8469,3.8443,3.8494,3.8507,3.8518,3.8523,3.8219,3.85,3.85,3.8499,3.8499,3.8499,0,3.679,3.6875,3.7019,3.719,3.7314,3.7311,3.7448,3.7551,3.7709,3.7831,3.7965,3.816,3.8321,3.843,3.8593,3.8686,3.8695,3.8726,3.872,3.8738,3.8538,3.8491,3.8716,3.8716,3.8716,3.8716,3.8716,3.8716,3.6938,3.7132,3.718,3.7424,3.7508,3.7683,3.7762,3.7868,3.7965,3.818,3.8313,3.8383,3.85,3.8672,3.8818,3.8847,3.8905,3.8937,3.8964,3.8775,3.8752,3.8731,3.8686,3.895,3.895,3.9153,3.9154,3.9156]},{"header":{"parameterUnit":"m.s-1","parameterCategory":1,"la1":30.2991,"la2":30.254,"lo1":-89.0895,"lo2":-89.0444,"dy":0.0017,"dx":0.0017,"nx":28,"ny":28,"refTime":"2025-03-21T21:00:00:Z","depth":0,"parameterNumber":3,"parameterNumberName":"V-component_of_WINDS"},"data":[0,0,0,0,0,0,0,0,0,0,0,0,0,0,0,0,0,0,0,0,0,0,0,0,0,0,0,0,0,0,0,0,0,0,0,0,0,0,0,0,0,0,0,0,0,0,0,0,0,0,0,0,0,0,0,0,0,0,0.1666,0.1667,0,0.1802,0.1803,0.1805,0.1826,0.1825,0.1824,0.1823,0.1962,0.1966,0.1971,0,0,0,0,0,0,0,0,0,0,0,0,0,0.1425,0.1429,0.1666,0.1668,0.1669,0.1801,0.1803,0.1805,0.1826,0.1825,0.1823,0.1822,0.196,0.1966,0.1972,0,0,0,0,0,0,0,0,0,0,0,0,0,0.1542,0.143,0.1666,0.1696,0.17,0.1801,0.1803,0.1805,0.1827,0.1825,0.1823,0.1821,0.1958,0.1965,0.1972,0.2053,0,0,0.1994,0.1998,0,0,0,0,0,0,0,0,0.1535,0.155,0.169,0.1694,0.1699,0.1795,0.1769,0.1888,0.1827,0.1778,0.1822,0.182,0.1908,0.1919,0.1948,0.2059,0.2065,0.1995,0.1999,0.2003,0.2005,0,0,0,0,0,0,0,0.1527,0.1545,0.172,0.1692,0.1697,0.1702,0.1717,0.1792,0.1852,0.1783,0.1784,0.18,0.191,0.1941,0.1952,0.2067,0.1995,0.2001,0.2006,0.2009,0.225,0.2252,0,0,0,0,0,0,0.1513,0.1538,0.1715,0.1724,0.1611,0.1708,0.1724,0.1766,0.1851,0.1862,0.1802,0.1801,0.193,0.1943,0.1957,0.2056,0.2003,0.2009,0.2013,0.2248,0.225,0.2253,0,0,0,0,0,0,0.1508,0.1529,0.171,0.1631,0.1655,0.1714,0.176,0.1769,0.1801,0.1865,0.1876,0.1823,0.1929,0.1947,0.2029,0.2062,0.2013,0.2019,0.2245,0.2249,0.2252,0.2256,0,0,0,0,0,0,0.1501,0.1527,0.1559,0.1632,0.1659,0.178,0.1763,0.1773,0.1813,0.1814,0.1888,0.1899,0.1929,0.2018,0.2036,0.2071,0.2025,0.2243,0.2247,0.2251,0.2254,0.2259,0.2264,0,0,0,0,0,0.1492,0.1555,0.156,0.1581,0.17,0.1782,0.1797,0.1831,0.1816,0.1848,0.1889,0.1896,0.2054,0.2026,0.2046,0.2084,0.2241,0.2246,0.225,0.2251,0.2258,0.2264,0,0,0,0,0,0,0.1485,0.1565,0.1572,0.166,0.1714,0.1785,0.1827,0.1837,0.1896,0.1894,0.1933,0.195,0.2029,0.2065,0.2031,0.2166,0.2146,0.2155,0.214,0.2147,0.2152,0.2143,0.2031,0,0,0,0,0,0.1493,0.1553,0.162,0.1691,0.1718,0.1767,0.1804,0.1825,0.1883,0.1906,0.1953,0.2008,0.207,0.211,0.2171,0.2258,0.2274,0.2294,0.2299,0.2303,0.2311,0.2358,0.2368,0.2268,0.2268,0.2268,0,0,0.1512,0.1563,0.1599,0.1691,0.1735,0.1796,0.1787,0.1852,0.1897,0.1916,0.1996,0.2032,0.2096,0.2181,0.222,0.2213,0.2341,0.2309,0.2311,0.2317,0.2364,0.2373,0.2382,0.2271,0.2271,0.227,0,0,0.1577,0.1621,0.1685,0.1729,0.1796,0.1828,0.1843,0.1913,0.1937,0.2018,0.2033,0.2087,0.2193,0.2238,0.2275,0.2354,0.2363,0.2372,0.2401,0.2447,0.2455,0.2462,0.249,0.25,0.238,0.238,0.238,0,0.1591,0.1684,0.1717,0.1782,0.1821,0.184,0.1904,0.1945,0.2028,0.2055,0.2045,0.2178,0.2222,0.2317,0.2336,0.2365,0.2384,0.2365,0.2451,0.2458,0.2466,0.2493,0.2504,0.238,0.238,0.238,0.238,0,0.1699,0.1762,0.1806,0.1885,0.193,0.1994,0.2036,0.2077,0.2094,0.2126,0.2208,0.2261,0.2333,0.2356,0.2373,0.2454,0.2447,0.2443,0.2425,0.2475,0.2502,0.2513,0.2382,0.2381,0.2381,0.2381,0,0,0.1765,0.186,0.1876,0.1911,0.1985,0.2035,0.2099,0.2168,0.2203,0.2258,0.2313,0.2402,0.2398,0.244,0.2461,0.2502,0.256,0.2493,0.2495,0.2504,0.2651,0.2654,0.2666,0.2566,0.2568,0.2569,0.2646,0,0.184,0.1955,0.1986,0.2084,0.2143,0.216,0.2216,0.2266,0.2298,0.2352,0.2387,0.2449,0.244,0.2465,0.2506,0.2545,0.2591,0.2539,0.2617,0.262,0.2602,0.268,0.2684,0.2754,0.2657,0.2658,0.266,0,0.1943,0.2,0.2104,0.2168,0.2194,0.2244,0.2309,0.2361,0.2418,0.2438,0.2483,0.2501,0.2567,0.2544,0.2636,0.26,0.2634,0.2657,0.2661,0.267,0.2644,0.2693,0.2777,0.2788,0.2676,0.2675,0.2674,0,0.1981,0.2084,0.2159,0.2189,0.2266,0.2301,0.2334,0.239,0.2429,0.2486,0.2511,0.2575,0.261,0.2658,0.2692,0.2672,0.2781,0.2761,0.28,0.2799,0.2824,0.2822,0.2915,0.2843,0.2843,0.2842,0.2842,0,0.2062,0.2125,0.2178,0.2224,0.2295,0.2328,0.2397,0.2431,0.248,0.2533,0.255,0.2599,0.264,0.2694,0.2721,0.2793,0.2808,0.2826,0.2833,0.2826,0.2823,0.2849,0.2845,0.2845,0.2845,0.2844,0.2844,0,0.2118,0.2156,0.2239,0.2304,0.2322,0.2371,0.2427,0.2473,0.2504,0.257,0.2588,0.2637,0.2702,0.2739,0.2821,0.2838,0.2918,0.2922,0.2899,0.2902,0.2939,0.2936,0.3054,0.3071,0.2986,0.2987,0.2987,0,0.2168,0.2216,0.2286,0.2323,0.2357,0.2416,0.2455,0.2489,0.253,0.2597,0.2634,0.27,0.2754,0.2857,0.2899,0.2961,0.2967,0.3004,0.2977,0.2968,0.2969,0.2966,0.2971,0.301,0.301,0.3011,0.3012,0,0.2252,0.2267,0.2324,0.2387,0.2434,0.2485,0.2536,0.2564,0.2607,0.2651,0.2717,0.2759,0.2842,0.2907,0.2972,0.3006,0.3016,0.3019,0.3032,0.3026,0.301,0.3019,0.2913,0.3017,0.3017,0.3016,0.3016,0.3016,0.2307,0.235,0.2406,0.2468,0.251,0.2556,0.2602,0.2638,0.2694,0.2764,0.278,0.2849,0.2903,0.2992,0.3027,0.3081,0.3075,0.3093,0.3098,0.3102,0.3103,0.3,0.3093,0.3093,0.3093,0.3093,0.3093,0,0.2392,0.2428,0.2485,0.2555,0.2604,0.2607,0.2663,0.2704,0.2765,0.2814,0.2867,0.2942,0.3004,0.3051,0.3114,0.3148,0.3154,0.3164,0.3162,0.317,0.3105,0.3088,0.3158,0.3158,0.3158,0.3158,0.3158,0.3158,0.2443,0.2517,0.2539,0.2633,0.2668,0.2737,0.2768,0.2811,0.285,0.2933,0.2985,0.3015,0.3063,0.3129,0.3186,0.3198,0.3221,0.323,0.3242,0.3181,0.3175,0.3168,0.3152,0.3234,0.3234,0.3303,0.3303,0.3304]}]]